Weather in Misovoe

Russia / Republic of Crimea     45°26′39″N   35°50′01″E
temp.,
°C
wind,
m/s
gust,
m/s
humid.,
%
clouds,
%
prec.,
mm/h
press.,
hPa
HPBL,
m
1 march, mon
mon100:00+5nnw5686100 0.4 1023630
03:00+4nw5588100 0.6 1023435
06:00+4w5586100 0.3 1024464
09:00+4wnw6681100 0.4 1025628
12:00+3wnw4490100 0.1 1026390
15:00+3nne5596100 0.6 1026311
18:00+3nne4479100 0.1 1027433
21:00+3n337776 0.1 1029450
2 march, tue
tue200:00+3n44780 0.0 1030464
03:00+4n346925 0.1 1030791
06:00+4n5571100 0.1 1030541
09:00+3nnw446870 0.1 1031517
12:00+3wnw45650 0.0 1030892
15:00+4wnw46650 0.0 1028632
18:00+4wsw35680 0.0 1026316
21:00+5wsw11137450 0.0 1025852
3 march, wed
wed300:00+4wsw11147733 0.0 1023751
03:00+5wsw13178040 0.0 1021674
06:00+5w12148574 0.0 1020594
09:00+5nnw9118387 0.1 1022740
12:00+5nnw8107880 0.1 1023979
15:00+5nnw787456 0.1 1024807
18:00+5nw46770 0.0 1026273
21:00+5n57750 0.0 1028372
4 march, thu
thu400:00+4n45690 0.0 1028400
03:00+4nnw11670 0.0 1028232
06:00+4wsw12670 0.0 1027292
09:00+4sw44740 0.0 1027249
12:00+5sw35630 0.0 1026282
15:00+7ssw56710 0.0 1024159
18:00+6ssw912750 0.0 1021330
21:00+5ssw812810 0.0 1021316
5 march, fri
fri500:00+5ssw812790 0.0 1020519
03:00+5ssw812780 0.0 1019504
06:00+5ssw812820 0.0 1018405
09:00+6ssw812824 0.0 1019393
12:00+7ssw811770 0.0 1018207
15:00+7s912750 0.0 1017218
18:00+7s1014780 0.0 1016294
21:00+7s11168116 0.0 1016306